TimeAKDT,TemperatureF,Dew PointF,Humidity,Sea Level PressureIn,VisibilityMPH,Wind Direction,Wind SpeedMPH,Gust SpeedMPH,PrecipitationIn,Events,Conditions,WindDirDegrees,DateUTC
12:53 AM,21.9,12.0,66,30.14,10.0,WNW,9.2,-,0.00,,Mostly Cloudy,290,2013-04-12 08:53:00
1:00 AM,21.2,10.4,63,30.13,10.0,WNW,8.1,-,N/A,,Overcast,290,2013-04-12 09:00:00
1:21 AM,21.2,12.2,68,30.14,9.0,NW,9.2,-,0.00,Snow,Light Snow,310,2013-04-12 09:21:00
1:53 AM,21.0,14.0,74,30.14,10.0,WNW,3.5,-,0.00,,Overcast,290,2013-04-12 09:53:00
2:53 AM,19.9,9.0,62,30.14,10.0,West,5.8,-,N/A,,Partly Cloudy,280,2013-04-12 10:53:00
3:53 AM,19.0,9.0,65,30.14,10.0,Calm,Calm,-,N/A,,Partly Cloudy,0,2013-04-12 11:53:00
4:53 AM,19.0,3.9,52,30.14,10.0,West,6.9,-,N/A,,Partly Cloudy,270,2013-04-12 12:53:00
5:53 AM,19.0,6.1,57,30.13,10.0,Variable,3.5,-,N/A,,Mostly Cloudy,0,2013-04-12 13:53:00
6:53 AM,21.0,12.9,71,30.12,8.0,WSW,8.1,-,0.00,Snow,Light Snow,250,2013-04-12 14:53:00
7:53 AM,21.9,10.0,60,30.12,10.0,WNW,13.8,19.6,0.00,,Scattered Clouds,290,2013-04-12 15:53:00
8:53 AM,23.0,12.9,65,30.12,9.0,West,16.1,20.7,0.00,Snow,Light Snow,270,2013-04-12 16:53:00
9:53 AM,25.0,10.0,53,30.12,10.0,West,10.4,18.4,0.00,,Partly Cloudy,270,2013-04-12 17:53:00
10:53 AM,26.1,12.9,58,30.12,10.0,West,13.8,20.7,N/A,,Partly Cloudy,260,2013-04-12 18:53:00
11:53 AM,27.0,10.9,51,30.11,10.0,West,15.0,23.0,N/A,,Partly Cloudy,260,2013-04-12 19:53:00
12:53 PM,30.0,7.0,38,30.11,10.0,WNW,17.3,26.5,N/A,,Partly Cloudy,290,2013-04-12 20:53:00
1:53 PM,30.9,10.0,42,30.10,10.0,WNW,16.1,23.0,N/A,,Partly Cloudy,300,2013-04-12 21:53:00
2:53 PM,30.9,8.1,38,30.10,10.0,WNW,16.1,-,N/A,,Partly Cloudy,290,2013-04-12 22:53:00
3:53 PM,32.0,1.9,28,30.10,10.0,West,18.4,26.5,N/A,,Partly Cloudy,280,2013-04-12 23:53:00
4:53 PM,30.9,8.1,38,30.09,10.0,WNW,18.4,28.8,N/A,,Partly Cloudy,290,2013-04-13 00:53:00
5:53 PM,30.9,8.1,38,30.10,10.0,WNW,16.1,25.3,N/A,,Partly Cloudy,290,2013-04-13 01:53:00
6:53 PM,30.9,9.0,40,30.11,10.0,West,12.7,19.6,N/A,,Partly Cloudy,280,2013-04-13 02:53:00
7:53 PM,28.9,7.0,40,30.12,10.0,West,11.5,19.6,N/A,,Partly Cloudy,260,2013-04-13 03:53:00
8:53 PM,27.0,7.0,43,30.13,10.0,WNW,9.2,21.9,N/A,,Partly Cloudy,290,2013-04-13 04:53:00
9:53 PM,26.1,5.0,41,30.14,10.0,Calm,Calm,-,N/A,,Clear,0,2013-04-13 05:53:00
10:53 PM,25.0,9.0,51,30.15,10.0,Calm,Calm,-,N/A,,Clear,0,2013-04-13 06:53:00
11:53 PM,25.0,10.0,53,30.16,10.0,Variable,5.8,-,N/A,,Clear,0,2013-04-13 07:53:00